When you browse on this site, cookies collect data to enhance your experience and personalize the content and advertising you see.
Visit our Privacy Policy to learn more. By continuing to use the site, you agree to this use of cookies and data.
  • In Latvia
  • List of Countries
  • For 7 days
  • Water Temperature
  • Satellite Maps
  • Weather Map
  • Weather Widgets
  • user-avatar
    Login

    Hourly Weather Nienowice

    Today, 18 June, Tuesday

    Time Temperature Precipitation Wind Pressure Humidity
    00:00 +18°C° 0 mm 1 mps 748 mmHg 90%
    01:00 +18°C° 0 mm 1 mps 748 mmHg 92%
    02:00 +16°C° 0 mm 1 mps 748 mmHg 94%
    03:00 +16°C° 0 mm 1 mps 748 mmHg 94%
    04:00 +16°C° 0 mm 1 mps 748 mmHg 95%
    05:00 +16°C° 0 mm 2 mps 748 mmHg 95%
    06:00 +17°C° 0 mm 2 mps 748 mmHg 91%
    07:00 +18°C° 0 mm 2 mps 748 mmHg 87%
    08:00 +19°C° 0 mm 3 mps 748 mmHg 83%
    09:00 +21°C° 0 mm 3 mps 748 mmHg 79%
    10:00 +22°C° 0 mm 3 mps 748 mmHg 76%
    11:00 +24°C° 0 mm 3 mps 748 mmHg 72%
    12:00 +24°C° 0 mm 3 mps 748 mmHg 72%
    13:00 +24°C° 0 mm 3 mps 748 mmHg 72%
    14:00 +25°C° 0 mm 3 mps 747 mmHg 72%
    15:00 +25°C° 0 mm 3 mps 747 mmHg 73%
    16:00 +25°C° 0 mm 3 mps 747 mmHg 74%
    17:00 +25°C° 0 mm 3 mps 747 mmHg 76%
    18:00 +24°C° 0.1 mm 3 mps 746 mmHg 79%
    19:00 +22°C° 0.1 mm 3 mps 746 mmHg 83%
    20:00 +22°C° 0.1 mm 3 mps 746 mmHg 86%
    21:00 +21°C° 0 mm 3 mps 746 mmHg 89%
    22:00 +20°C° 0 mm 3 mps 746 mmHg 91%
    23:00 +19°C° 0 mm 3 mps 746 mmHg 93%

    Tomorrow, 19 June, Wednesday

    Time Temperature Precipitation Wind Pressure Humidity
    00:00 +19°C° 0 mm 3 mps 746 mmHg 94%
    01:00 +18°C° 0 mm 3 mps 746 mmHg 94%
    02:00 +18°C° 0 mm 3 mps 746 mmHg 95%
    03:00 +18°C° 0 mm 3 mps 746 mmHg 95%
    04:00 +18°C° 0 mm 3 mps 745 mmHg 95%
    05:00 +18°C° 0 mm 3 mps 745 mmHg 95%
    06:00 +19°C° 0 mm 3 mps 745 mmHg 92%
    07:00 +20°C° 0 mm 4 mps 745 mmHg 89%
    08:00 +21°C° 0 mm 4 mps 745 mmHg 87%
    09:00 +23°C° 0.4 mm 4 mps 745 mmHg 84%
    10:00 +25°C° 0.4 mm 4 mps 745 mmHg 82%
    11:00 +26°C° 0.4 mm 4 mps 745 mmHg 80%
    12:00 +27°C° 1 mm 4 mps 744 mmHg 76%
    13:00 +28°C° 1 mm 4 mps 744 mmHg 72%
    14:00 +29°C° 1 mm 3 mps 744 mmHg 68%
    15:00 +28°C° 0.5 mm 4 mps 743 mmHg 71%
    16:00 +28°C° 0.5 mm 4 mps 743 mmHg 74%
    17:00 +27°C° 0.5 mm 4 mps 743 mmHg 77%
    18:00 +26°C° 0.3 mm 4 mps 743 mmHg 81%
    19:00 +25°C° 0.3 mm 3 mps 743 mmHg 85%
    20:00 +22°C° 0.3 mm 3 mps 743 mmHg 89%
    21:00 +22°C° 0.1 mm 3 mps 743 mmHg 90%
    22:00 +21°C° 0.1 mm 2 mps 743 mmHg 91%
    23:00 +20°C° 0.1 mm 2 mps 743 mmHg 92%

    Day after tomorrow, 20 June, Thursday

    Time Temperature Precipitation Wind Pressure Humidity
    00:00 +20°C° 0 mm 2 mps 743 mmHg 92%
    01:00 +20°C° 0 mm 2 mps 743 mmHg 92%
    02:00 +19°C° 0 mm 2 mps 742 mmHg 92%
    03:00 +19°C° 0 mm 2 mps 743 mmHg 91%
    04:00 +20°C° 0 mm 1 mps 743 mmHg 91%
    05:00 +20°C° 0 mm 1 mps 743 mmHg 90%
    06:00 +22°C° 0 mm 1 mps 743 mmHg 86%
    07:00 +23°C° 0 mm 1 mps 743 mmHg 82%
    08:00 +24°C° 0 mm 1 mps 743 mmHg 78%
    09:00 +26°C° 0 mm 1 mps 743 mmHg 73%
    10:00 +27°C° 0 mm 1 mps 743 mmHg 68%
    11:00 +28°C° 0 mm 1 mps 743 mmHg 63%
    12:00 +29°C° 0 mm 1 mps 743 mmHg 62%
    13:00 +29°C° 0 mm 1 mps 743 mmHg 61%
    14:00 +29°C° 0 mm 2 mps 743 mmHg 61%
    15:00 +29°C° 0.1 mm 2 mps 743 mmHg 61%
    16:00 +29°C° 0.1 mm 2 mps 742 mmHg 61%
    17:00 +30°C° 0.1 mm 2 mps 742 mmHg 61%
    18:00 +28°C° 0.4 mm 1 mps 742 mmHg 67%
    19:00 +27°C° 0.4 mm 1 mps 742 mmHg 73%
    20:00 +25°C° 0.4 mm 1 mps 742 mmHg 78%
    21:00 +24°C° 0 mm 1 mps 743 mmHg 81%
    22:00 +23°C° 0 mm 1 mps 743 mmHg 83%
    23:00 +22°C° 0 mm 1 mps 743 mmHg 85%

    21 June, Friday

    Time Temperature Precipitation Wind Pressure Humidity
    00:00 +22°C° 0 mm 1 mps 743 mmHg 86%
    01:00 +21°C° 0 mm 1 mps 743 mmHg 87%
    02:00 +21°C° 0 mm 1 mps 743 mmHg 88%
    03:00 +21°C° 0 mm 1 mps 743 mmHg 87%
    04:00 +21°C° 0 mm 1 mps 743 mmHg 87%
    05:00 +20°C° 0 mm 1 mps 743 mmHg 87%
    06:00 +22°C° 0 mm 1 mps 743 mmHg 83%
    07:00 +24°C° 0 mm 1 mps 743 mmHg 79%
    08:00 +26°C° 0 mm 1 mps 743 mmHg 74%
    09:00 +27°C° 0 mm 2 mps 743 mmHg 69%
    10:00 +28°C° 0 mm 2 mps 743 mmHg 64%
    11:00 +30°C° 0 mm 2 mps 744 mmHg 59%
    12:00 +30°C° 0.2 mm 2 mps 743 mmHg 58%
    13:00 +31°C° 0.2 mm 2 mps 743 mmHg 58%
    14:00 +31°C° 0.2 mm 2 mps 743 mmHg 57%
    15:00 +31°C° 0.8 mm 2 mps 743 mmHg 61%
    16:00 +30°C° 0.8 mm 2 mps 743 mmHg 65%
    17:00 +30°C° 0.8 mm 1 mps 742 mmHg 69%
    18:00 +28°C° 0.5 mm 2 mps 742 mmHg 73%
    19:00 +27°C° 0.5 mm 2 mps 742 mmHg 78%
    20:00 +25°C° 0.5 mm 2 mps 742 mmHg 82%
    21:00 +24°C° 0 mm 2 mps 743 mmHg 84%
    22:00 +23°C° 0 mm 2 mps 743 mmHg 85%
    23:00 +23°C° 0 mm 2 mps 743 mmHg 87%

    22 June, Saturday

    Time Temperature Precipitation Wind Pressure Humidity
    00:00 +21°C° 0 mm 2 mps 743 mmHg 88%
    01:00 +21°C° 0 mm 2 mps 743 mmHg 89%
    02:00 +20°C° 0 mm 2 mps 743 mmHg 90%
    03:00 +20°C° 0.4 mm 2 mps 744 mmHg 92%
    04:00 +20°C° 0.4 mm 3 mps 744 mmHg 95%
    05:00 +19°C° 0.4 mm 4 mps 744 mmHg 97%
    06:00 +20°C° 0 mm 4 mps 744 mmHg 95%
    07:00 +20°C° 0 mm 4 mps 745 mmHg 94%
    08:00 +21°C° 0 mm 4 mps 745 mmHg 92%
    09:00 +21°C° 0 mm 4 mps 745 mmHg 91%
    10:00 +21°C° 0 mm 4 mps 746 mmHg 89%
    11:00 +21°C° 0 mm 4 mps 746 mmHg 88%
    12:00 +22°C° 0.1 mm 4 mps 746 mmHg 87%
    13:00 +22°C° 0.1 mm 4 mps 746 mmHg 86%
    14:00 +22°C° 0.1 mm 4 mps 746 mmHg 85%
    15:00 +22°C° 0.4 mm 3 mps 746 mmHg 85%
    16:00 +24°C° 0.4 mm 3 mps 746 mmHg 85%
    17:00 +24°C° 0.4 mm 3 mps 746 mmHg 85%
    18:00 +22°C° 0.9 mm 3 mps 746 mmHg 87%
    19:00 +21°C° 0.9 mm 3 mps 746 mmHg 89%
    20:00 +21°C° 0.9 mm 3 mps 746 mmHg 92%
    21:00 +20°C° 0.9 mm 2 mps 746 mmHg 93%
    22:00 +19°C° 0.9 mm 2 mps 746 mmHg 95%
    23:00 +19°C° 0.9 mm 2 mps 746 mmHg 96%

    23 June, Sunday

    Time Temperature Precipitation Wind Pressure Humidity
    00:00 +19°C° 1 mm 2 mps 746 mmHg 96%
    01:00 +19°C° 1 mm 2 mps 746 mmHg 97%
    02:00 +19°C° 1 mm 2 mps 746 mmHg 97%
    03:00 +18°C° 0.4 mm 2 mps 746 mmHg 97%
    04:00 +18°C° 0.4 mm 2 mps 746 mmHg 97%
    05:00 +18°C° 0.4 mm 2 mps 746 mmHg 98%
    06:00 +19°C° 0 mm 2 mps 746 mmHg 97%
    07:00 +19°C° 0 mm 3 mps 746 mmHg 96%
    08:00 +19°C° 0 mm 3 mps 746 mmHg 95%
    09:00 +19°C° 0 mm 3 mps 747 mmHg 93%
    10:00 +20°C° 0 mm 3 mps 747 mmHg 92%
    11:00 +20°C° 0 mm 3 mps 747 mmHg 91%
    12:00 +21°C° 0.1 mm 3 mps 747 mmHg 88%
    13:00 +22°C° 0.1 mm 3 mps 746 mmHg 84%
    14:00 +22°C° 0.1 mm 3 mps 746 mmHg 81%
    15:00 +24°C° 0.1 mm 3 mps 746 mmHg 79%
    16:00 +24°C° 0.1 mm 2 mps 746 mmHg 77%
    17:00 +25°C° 0.1 mm 2 mps 746 mmHg 75%
    18:00 +24°C° 0.1 mm 2 mps 746 mmHg 79%
    19:00 +23°C° 0.1 mm 1 mps 746 mmHg 83%
    20:00 +22°C° 0.1 mm 1 mps 747 mmHg 87%
    21:00 +21°C° 0 mm 1 mps 747 mmHg 89%
    22:00 +20°C° 0 mm 1 mps 747 mmHg 91%
    23:00 +20°C° 0 mm 1 mps 747 mmHg 94%
    Show more